Location: Molveno
(46.1500°N, 10.9667°E)
Time: 15:24:13
(UTC+00:00)

Cosmos 1295 Rocket - Pass Details

Date: 05 July 2020
Orbit: 944 x 994 km, 82.9° (Epoch: 11 August)

Event Time Altitude Azimuth Distance (km) Brightness Sun altitude
Exits shadow 22:06:29 31° 178° (S) 1,601 5.1 -19.1°
Maximum altitude 22:09:35 80° 96° (E) 975 4.4 -19.3°
Drops below altitude 10° 22:15:42 10° 11° (N) 2,681 7.7 -19.6°
Sets 22:18:11 0° 10° (N) 3,627 8.6 -19.7°
